ECMWFNIL_prec_cthk_024.txt.gz
RH
69 70 70 61 53 45 35 34 34 32 32 25 19 19 20 19 18 16 14 13 13 12 12 13 12 13 12 12 12 12 12 12 12 13 13 13 13 13 13 14 14 14
71 75 75 65 57 49 39 35 35 34 34 29 23 23 23 24 23 22 21 18 17 16 16 16 15 15 14 13 13 13 12 11 11 11 12 11 12 12 12 11 12 12
73 77 77 72 64 55 44 39 37 37 37 34 30 29 29 29 29 27 27 26 24 23 22 23 23 22 22 21 20 19 18 16 15 14 14 13 12 12 11 11 11 11
71 73 74 75 72 63 52 46 43 42 43 41 39 38 37 37 36 34 33 32 32 31 30 29 29 28 28 29 28 27 27 25 24 23 21 20 18 18 16 15 14 14
64 69 71 76 78 69 58 55 53 52 51 51 49 48 47 45 43 41 40 40 40 39 39 37 35 34 32 32 31 31 30 30 29 28 27 26 24 24 23 23 22 21
59 66 67 74 81 75 66 63 62 61 60 60 58 56 54 53 52 50 47 47 46 46 45 44 43 42 40 37 36 34 32 31 30 29 29 28 27 26 25 25 26 26
60 63 64 69 77 77 72 69 66 65 65 66 67 64 61 60 60 59 56 54 52 50 49 48 46 46 45 44 42 40 37 34 33 32 32 31 29 28 28 27 28 29
57 59 63 69 73 72 72 74 72 70 68 68 69 69 69 70 69 67 64 61 59 57 55 54 50 48 48 49 48 46 44 41 39 38 38 37 35 34 34 34 35 35
54 63 70 73 73 69 70 73 74 73 72 71 70 70 72 75 76 74 71 69 66 64 63 62 58 54 51 51 52 52 50 48 46 45 45 45 44 42 42 42 42 43
57 74 81 81 80 76 73 75 75 75 78 78 77 76 76 75 76 75 76 73 69 67 67 67 64 59 55 53 54 57 58 56 54 52 52 51 50 51 50 48 47 46
63 73 76 77 82 83 81 81 80 78 79 80 80 81 82 80 78 77 77 76 73 71 69 69 67 64 59 57 56 57 59 59 58 58 58 57 57 57 55 52 50 48
66 66 64 65 73 79 81 83 79 72 70 74 76 77 78 78 79 78 78 79 79 78 75 74 74 70 67 64 61 61 61 59 57 57 58 60 61 61 58 55 55 53
61 62 60 58 62 69 74 75 71 66 66 69 69 69 70 71 72 74 76 78 79 81 80 79 78 76 74 71 69 69 69 65 60 56 56 57 59 60 59 56 54 55
57 58 58 56 56 62 65 65 63 63 66 65 63 63 63 64 64 66 68 71 72 74 76 77 78 79 78 76 74 72 72 72 69 63 59 59 60 61 59 54 52 54
55 54 55 55 55 58 60 61 61 61 62 60 59 58 57 57 59 60 62 63 63 62 64 67 70 72 74 76 77 77 76 76 75 69 65 64 65 66 64 62 60 59
53 53 53 54 54 54 54 54 54 54 53 52 53 51 50 52 54 56 57 58 57 55 55 57 59 60 62 66 70 75 78 80 79 75 72 72 72 72 70 69 68 65
49 48 47 46 46 47 47 47 48 48 48 49 50 50 50 51 53 56 57 57 57 57 57 57 57 56 57 58 62 67 70 73 75 76 75 74 74 74 71 70 70 68
48 47 45 45 46 45 46 48 50 52 53 54 54 53 53 53 54 55 55 56 57 57 56 55 55 55 55 55 56 59 62 64 66 69 72 71 70 69 69 68 68 66
50 49 48 47 47 46 45 44 44 47 50 51 51 50 50 50 49 49 49 51 51 50 49 49 47 47 47 48 48 50 52 54 55 58 61 64 66 67 66 64 62 63
52 51 50 49 48 46 45 42 40 40 41 42 43 43 43 43 43 43 44 44 44 44 44 43 40 37 37 38 40 42 44 45 47 49 50 53 57 59 61 64 64 65
54 53 52 51 49 47 45 42 39 37 35 35 37 37 37 38 38 39 39 40 40 40 41 41 37 34 32 32 33 35 36 37 39 41 44 46 48 50 54 60 61 59
53 53 53 52 50 48 45 42 38 35 32 31 31 32 32 32 32 33 36 38 40 41 41 41 38 34 31 30 30 30 29 30 32 34 38 41 43 44 45 48 51 55
55 54 55 55 52 49 46 43 40 37 35 34 33 32 31 29 28 30 34 38 40 41 40 40 38 36 32 29 29 29 29 29 31 33 37 39 40 41 40 40 44 49
59 58 58 56 54 51 47 44 44 43 42 41 39 38 35 31 28 28 32 37 40 42 42 42 41 40 37 34 34 34 34 34 35 38 41 41 41 40 40 40 43 45
63 62 60 58 56 53 50 47 46 47 45 43 43 43 39 35 30 27 29 33 37 40 43 43 44 43 42 40 41 41 41 41 43 45 45 44 43 43 42 42 42 43
64 62 59 57 55 53 51 48 47 46 45 44 45 44 41 38 34 29 27 29 32 36 39 41 41 42 42 42 43 43 44 46 48 49 48 46 46 45 44 43 42 41

ECMWFNIL_prec_cthk_030.txt.gz
RH
66 64 60 54 54 57 59 58 54 51 48 42 39 36 28 20 19 19 17 16 16 15 14 14 13 12 12 11 11 11 11 11 11 11 12 12 11 12 11 12 12 12
72 67 59 53 54 58 65 65 57 53 53 48 43 43 38 28 21 20 19 19 19 18 17 16 15 14 13 12 11 11 10 10 9 10 10 10 10 10 10 10 10 10
69 65 57 55 57 61 67 68 60 57 57 53 48 48 47 39 29 26 27 26 25 25 26 25 24 22 21 19 18 17 16 16 15 14 13 12 11 10 10 10 10 10
64 63 57 58 64 68 69 69 68 65 59 54 51 50 51 47 38 33 34 34 33 34 34 33 33 31 30 29 27 26 26 25 24 24 23 22 20 19 19 18 17 16
64 64 60 61 66 69 68 67 70 68 58 53 52 51 53 52 46 40 40 39 38 39 39 39 38 37 36 35 34 33 32 30 30 30 29 29 28 28 27 26 26 26
62 61 60 62 61 60 60 60 65 65 58 55 55 52 53 52 49 46 44 44 43 43 43 42 42 41 40 39 38 37 36 35 35 34 33 32 32 31 31 31 31 31
57 55 56 58 56 53 53 54 59 60 57 59 58 52 52 53 52 50 47 47 47 47 48 47 46 46 44 43 42 41 40 39 38 38 38 37 35 34 34 33 33 33
51 50 53 55 54 52 51 51 56 57 57 63 63 57 55 56 57 59 57 56 54 53 54 53 53 55 55 55 54 52 49 47 45 43 43 43 42 41 39 38 38 38
50 49 52 54 54 55 54 52 57 59 59 65 69 65 62 61 64 66 66 66 65 64 64 65 68 71 71 71 70 69 65 61 57 52 49 48 48 48 46 44 44 45
51 50 50 49 50 54 56 55 59 63 64 70 76 74 71 70 71 72 73 74 75 75 74 74 78 82 81 79 77 78 76 73 70 65 60 55 54 55 54 52 51 50
52 53 52 48 48 55 59 59 62 67 69 73 78 79 79 77 77 77 79 79 80 81 81 80 82 83 83 81 78 79 81 80 77 76 72 66 61 61 61 60 59 56
53 54 53 51 51 58 64 65 67 70 70 70 73 78 82 81 81 82 82 82 82 83 83 84 84 84 86 88 85 83 82 82 82 82 81 77 70 65 64 64 64 63
52 51 52 53 55 61 66 65 66 65 63 63 68 72 74 73 75 79 79 79 82 84 84 83 82 81 82 86 86 83 81 80 82 82 82 81 77 71 68 68 69 69
52 50 49 50 52 61 67 66 63 61 60 62 66 68 70 71 74 78 81 81 83 83 81 79 78 75 75 77 78 79 77 75 77 78 79 81 80 79 77 75 74 74
54 52 49 46 46 55 65 66 63 63 64 65 65 65 68 72 76 81 83 84 84 80 75 73 74 72 71 71 70 68 69 67 69 71 73 75 78 80 81 80 77 75
53 52 51 49 48 52 60 63 65 67 68 67 65 65 65 66 69 73 75 75 75 72 69 70 71 68 66 63 61 60 61 62 62 64 65 66 68 70 73 78 82 81
53 53 52 52 52 54 60 64 67 69 68 67 64 63 61 61 63 65 65 66 64 62 63 65 64 62 58 57 57 58 59 60 60 62 62 62 62 63 65 68 73 76
55 55 56 58 59 59 63 68 71 71 71 69 65 61 59 58 58 58 59 61 61 59 60 60 58 57 54 52 52 53 54 55 56 57 59 59 60 61 61 61 62 64
56 59 63 68 70 69 68 69 71 71 71 69 66 61 58 57 56 57 59 61 62 62 61 59 58 56 53 49 47 46 46 46 47 47 48 49 50 51 52 53 53 54
55 58 63 69 73 72 68 64 63 63 62 61 60 58 57 58 58 60 61 62 63 62 61 58 57 54 50 47 46 44 41 39 37 36 35 35 36 36 37 38 39 42
56 58 61 65 68 67 66 64 62 59 57 57 57 56 56 57 57 59 60 60 60 59 56 54 51 48 45 44 43 40 37 33 30 28 27 27 27 27 27 28 29 32
59 60 61 63 64 64 64 64 62 60 59 57 57 57 56 56 56 56 56 55 55 54 52 50 49 46 44 42 41 39 36 33 30 27 27 27 26 27 27 27 28 30
62 61 62 63 64 64 64 63 63 63 61 58 57 56 56 56 56 55 53 51 51 51 51 50 49 48 46 44 43 42 42 39 36 32 29 28 27 27 28 31 33 34
66 64 62 62 63 64 65 64 64 62 59 56 54 53 53 56 56 56 54 51 50 50 49 49 48 48 48 48 47 49 49 44 39 36 34 32 30 29 28 32 36 38
71 69 64 61 61 63 64 65 65 64 62 61 59 57 58 61 61 60 59 57 55 54 52 52 50 49 49 49 51 53 51 46 42 41 41 39 37 35 33 34 37 39
78 76 72 69 67 66 67 67 67 65 65 64 64 63 64 66 65 64 63 62 61 61 59 57 56 54 52 51 52 54 52 47 46 46 46 44 43 40 39 37 37 39

ECMWFNIL_prec_cthk_033.txt.gz
RH
59 60 59 54 53 55 56 55 54 56 55 48 45 44 39 36 32 26 20 16 16 16 16 15 15 14 13 14 13 13 13 13 12 12 12 11 11 12 11 11 11 11
63 64 62 56 54 56 56 55 54 58 57 50 48 47 43 39 35 31 28 23 19 19 18 18 19 18 18 17 17 16 16 16 16 15 14 13 12 11 10 10 9 9
59 61 61 56 51 51 51 52 55 60 61 57 55 51 47 44 40 36 36 34 29 26 25 24 25 25 25 24 23 23 22 22 21 20 20 19 18 17 16 15 14 13
55 59 62 57 51 50 50 54 61 66 68 68 64 56 50 47 44 40 40 42 39 33 31 30 30 30 30 29 28 28 27 26 25 24 24 24 24 24 24 25 25 24
54 57 61 59 54 53 55 57 63 69 71 71 66 58 51 48 45 43 44 45 44 40 38 37 36 35 34 33 33 32 31 30 29 29 28 28 28 29 30 30 30 31
51 52 56 57 53 51 52 54 55 59 61 63 59 52 47 46 45 45 47 48 46 44 43 42 41 41 39 37 37 36 35 35 34 33 33 34 34 34 34 34 34 35
49 50 51 53 52 49 50 50 48 48 51 55 55 48 45 47 47 45 47 49 49 48 47 45 43 43 43 42 42 41 41 40 40 39 39 39 39 39 38 38 38 38
47 48 48 50 52 50 48 45 44 45 45 49 52 51 47 48 49 47 47 49 50 51 51 50 48 47 47 48 49 50 50 49 49 48 47 47 47 45 43 42 42 42
44 46 46 46 48 50 49 45 43 43 44 46 50 53 52 51 53 54 53 54 54 55 57 57 56 55 57 58 60 61 61 62 62 61 60 58 57 53 48 45 45 45
43 45 46 44 45 49 51 50 45 42 44 47 50 55 60 62 63 62 60 62 64 64 65 65 63 62 64 69 73 73 74 76 78 76 73 70 68 65 60 55 51 50
43 44 46 46 47 49 50 52 51 47 46 48 53 59 64 68 70 71 69 68 69 71 73 74 72 70 70 75 81 81 80 82 83 82 82 80 78 75 72 68 62 58
46 45 46 49 51 52 52 52 53 52 50 51 56 62 66 66 68 72 74 74 75 75 77 77 77 78 78 80 83 83 81 83 85 84 85 86 86 84 82 78 74 69
50 48 47 48 51 54 53 51 52 53 52 52 53 57 63 66 65 66 71 76 78 77 77 75 75 79 82 82 83 82 81 82 82 80 81 83 84 85 85 83 81 78
51 50 49 47 48 49 50 49 52 55 54 53 51 50 53 58 62 64 65 68 71 74 78 77 76 81 84 83 82 79 76 76 75 74 74 76 75 76 78 79 79 79
50 51 51 49 46 45 44 46 52 56 58 57 56 53 52 53 58 64 64 63 67 74 80 82 80 81 81 80 79 76 72 71 71 72 71 71 70 68 69 71 72 74
49 50 52 52 50 46 44 44 48 54 59 60 59 57 58 59 62 64 63 64 70 76 80 82 82 81 79 78 75 72 68 66 66 68 68 67 65 63 63 65 64 64
47 49 51 54 54 51 49 48 49 53 58 59 59 60 63 66 67 64 63 65 70 71 71 73 73 72 72 73 69 65 64 63 62 63 63 60 58 58 60 62 61 60
47 48 50 52 53 53 54 53 53 56 59 61 61 62 65 68 67 65 65 67 66 64 64 64 62 61 62 62 62 61 59 58 57 56 56 55 55 55 56 56 55 54
48 50 50 51 51 52 54 57 58 61 63 63 62 62 66 69 68 67 66 66 64 63 63 62 60 59 61 61 62 61 58 55 52 50 49 48 47 46 46 45 45 44
50 53 54 54 55 55 56 59 64 67 67 64 65 69 70 68 67 68 69 70 68 65 64 65 65 64 65 65 64 62 59 55 52 48 44 41 38 36 35 35 35 35
52 53 54 57 61 63 63 64 67 69 67 64 69 75 74 69 68 72 73 71 66 63 62 64 65 64 65 65 63 60 58 54 49 45 40 37 34 32 31 31 30 30
58 58 57 59 63 66 68 69 71 72 70 68 71 74 74 72 72 71 68 62 57 56 58 60 61 61 61 60 59 57 55 51 47 44 43 40 36 34 32 31 29 30
61 63 61 63 67 68 68 70 71 71 72 71 70 68 67 67 66 64 61 57 54 54 56 57 58 58 57 56 56 54 52 50 49 48 47 45 43 41 38 35 34 35
55 58 59 63 70 70 68 68 69 68 68 67 65 64 62 60 59 58 56 55 55 56 55 53 53 52 51 51 51 50 50 51 53 53 53 52 52 50 47 44 41 41
50 53 56 62 69 71 68 67 68 67 66 65 65 65 64 62 60 59 57 56 57 57 55 52 51 49 47 47 47 48 51 55 57 58 58 58 57 55 54 52 49 46
46 51 55 58 64 69 67 66 67 68 67 66 65 64 62 61 61 60 59 60 60 61 59 58 55 52 51 51 51 52 54 58 61 61 60 60 60 59 57 55 51 48

ECMWFNIL_prec_cthk_036.txt.gz
RH
54 52 49 45 44 45 46 48 50 50 51 55 54 47 41 41 39 36 32 29 26 21 16 14 13 15 14 13 16 20 16 12 12 12 11 12 12 11 11 12 13 14
54 56 56 52 47 48 47 46 48 49 49 52 52 48 44 44 43 40 35 31 29 26 21 17 15 14 16 15 15 17 16 14 14 13 12 11 10 10 10 9 9 10
57 57 55 49 43 43 44 44 47 47 48 51 52 53 51 48 47 43 38 35 32 31 28 26 22 20 19 19 19 20 21 20 19 19 18 17 16 15 13 12 11 12
59 56 53 48 42 41 43 45 48 48 49 51 53 58 57 51 49 46 42 40 38 36 36 35 33 29 27 27 27 26 26 26 26 25 25 24 24 23 23 22 21 20
60 57 54 51 46 45 46 48 52 53 52 52 54 60 61 54 52 49 44 44 43 40 40 40 39 37 36 35 34 33 33 32 31 30 30 30 30 30 30 30 28 28
54 52 52 52 49 48 50 51 51 51 50 50 53 58 59 54 52 48 44 43 43 42 43 43 42 41 40 39 38 38 39 39 36 35 36 34 34 34 34 35 36 36
48 49 50 52 49 45 47 48 47 47 47 48 49 51 51 48 45 43 41 41 42 44 46 46 45 43 42 41 41 40 41 40 39 41 43 41 38 38 38 38 39 39
47 48 49 48 45 43 43 46 46 45 44 43 43 44 45 46 42 38 38 40 42 45 46 48 48 47 45 44 44 44 44 44 44 45 48 46 44 46 45 42 41 41
44 45 45 44 44 43 43 43 44 42 40 38 38 38 41 45 45 41 39 41 45 48 49 48 49 50 51 50 50 52 54 55 55 54 54 54 55 59 57 53 51 50
45 44 45 44 44 45 44 43 42 41 40 37 35 36 37 42 46 46 44 44 48 51 51 51 54 57 58 58 57 58 61 65 67 66 64 64 67 70 69 67 65 64
51 49 48 48 45 45 46 47 44 43 41 38 37 38 39 40 47 51 50 50 55 58 56 55 58 62 63 64 65 65 66 69 72 74 73 72 75 78 77 76 76 75
55 53 51 50 46 43 45 49 51 50 47 43 42 43 43 42 48 55 57 58 62 65 64 60 61 64 66 67 69 72 74 74 73 76 77 78 80 82 81 82 82 82
55 54 54 52 48 45 45 48 53 55 53 49 47 47 46 46 49 55 59 63 64 65 65 63 63 68 70 68 69 72 76 77 77 78 79 78 78 80 81 81 81 81
58 57 56 54 51 49 49 51 55 56 55 53 51 50 49 47 49 52 54 57 59 59 59 59 62 69 73 73 71 70 74 78 80 80 78 74 72 73 74 74 73 73
56 56 55 53 51 50 51 54 57 56 54 52 51 52 51 48 49 52 53 53 54 55 56 58 61 66 72 73 72 72 75 79 81 80 77 72 69 68 68 69 68 66
50 50 50 49 50 48 47 49 52 53 51 49 49 52 54 52 51 53 55 55 57 59 60 60 60 64 68 71 73 76 78 80 83 80 75 71 69 68 67 67 67 66
48 47 46 45 46 45 44 44 46 48 48 48 50 52 54 55 54 54 54 56 59 62 64 61 59 63 68 71 76 81 80 81 82 78 74 71 69 68 68 68 67 67
49 49 47 45 45 44 43 44 46 48 51 52 54 55 57 57 58 58 58 59 61 64 66 66 65 67 70 71 74 78 78 78 77 72 69 67 64 64 66 65 64 63
48 48 47 46 46 45 44 44 46 49 53 55 55 58 59 60 62 66 68 67 67 65 66 70 71 72 72 71 72 72 70 68 66 64 62 62 58 57 57 57 58 59
46 47 46 45 45 45 45 47 48 50 52 52 54 58 60 60 63 69 72 72 69 65 65 71 73 72 71 71 71 70 68 67 65 61 59 56 51 48 46 46 47 48
48 47 46 44 44 44 46 48 50 51 51 50 53 56 58 58 60 62 65 69 73 74 75 78 77 74 74 74 74 73 71 68 63 57 53 49 43 40 40 39 40 40
55 54 53 51 50 49 50 50 48 47 47 47 50 52 52 54 57 58 61 70 80 87 89 86 78 72 71 71 72 70 65 59 54 50 49 46 42 42 43 42 41 40
60 61 60 58 54 52 53 53 51 50 51 50 50 51 52 53 56 59 63 68 76 85 90 84 74 67 63 61 60 57 54 53 51 50 52 50 48 50 51 48 45 43
60 61 61 59 55 52 50 49 49 50 54 56 54 53 53 53 55 58 61 61 60 63 68 67 63 60 58 56 55 53 52 55 56 56 58 58 56 57 56 53 51 49
53 53 54 55 55 53 51 49 49 50 52 56 56 53 51 50 51 55 58 56 53 50 50 51 52 53 53 53 54 54 55 57 59 61 62 63 61 59 57 55 53 51
47 47 47 48 49 51 52 52 54 54 52 50 49 46 43 41 45 51 55 54 54 55 54 53 52 52 51 50 51 53 52 55 62 65 66 67 64 60 58 55 53 52

ECMWFNIL_prec_cthk_042.txt.gz
RH
58 56 52 50 52 52 52 51 50 51 54 54 53 49 43 41 40 33 30 31 29 24 21 21 24 27 28 28 26 22 19 18 16 15 13 11 14 19 23 26 26 24
59 59 56 56 59 55 53 54 54 54 55 55 53 48 41 41 39 32 29 29 29 26 23 24 26 25 24 22 20 18 19 20 19 18 16 14 13 15 18 21 22 21
64 63 59 60 61 55 53 55 55 55 55 54 53 47 40 39 38 32 29 29 30 27 25 26 28 24 22 20 18 18 18 17 18 18 17 15 14 14 16 19 21 20
71 68 63 62 60 52 50 54 54 55 56 55 54 48 40 38 35 31 29 29 30 29 28 29 30 27 23 22 21 21 20 20 19 19 19 18 17 16 16 17 18 18
72 70 64 60 56 51 49 51 53 56 57 56 53 46 39 37 35 33 31 32 34 33 30 30 31 29 28 28 29 29 28 27 26 26 26 26 26 24 23 21 20 19
74 72 67 60 56 54 51 48 51 56 58 54 49 42 35 34 34 33 33 34 36 38 35 32 32 33 32 33 33 32 32 31 32 33 33 32 35 35 34 31 27 24
75 74 71 67 61 54 48 46 50 55 55 48 45 43 36 32 32 30 32 35 37 38 37 33 33 34 33 32 32 31 31 33 36 39 38 37 39 39 36 36 35 32
74 74 73 70 63 51 44 46 49 52 51 45 45 45 39 37 36 32 31 32 33 35 35 33 33 33 33 33 32 32 32 34 38 41 40 39 40 41 38 37 36 35
74 72 71 67 60 50 46 46 46 49 50 48 47 45 41 43 42 37 34 32 31 31 31 31 33 32 33 34 34 34 34 35 38 41 41 41 43 47 48 46 43 39
71 68 66 65 60 54 51 50 48 48 48 50 51 47 43 44 42 39 40 39 37 35 30 28 29 29 31 33 34 36 37 39 42 44 47 49 51 55 58 58 56 53
67 66 65 64 62 58 59 58 54 52 50 50 53 50 45 44 42 39 41 42 41 41 38 35 33 30 31 33 37 40 43 46 50 52 53 53 54 56 59 61 61 61
60 60 61 63 65 63 63 63 62 60 56 51 52 52 49 47 45 42 42 43 42 42 42 42 42 40 40 43 46 49 52 54 53 52 51 50 50 51 53 56 58 61
59 61 62 65 68 66 64 67 69 64 56 51 53 54 52 51 49 44 44 44 44 44 43 44 46 48 50 53 57 57 58 58 55 52 51 52 54 54 54 56 58 61
62 65 65 65 67 66 64 67 70 64 55 52 54 54 52 52 50 47 46 46 46 48 49 49 51 53 55 58 60 60 59 59 58 56 56 57 60 61 62 64 65 67
63 66 66 65 66 67 65 65 66 64 59 56 55 53 52 52 52 52 50 47 48 53 55 55 56 59 60 60 60 62 63 63 62 61 61 64 69 72 71 70 72 74
64 67 69 68 66 64 61 59 58 58 57 55 54 54 55 57 58 58 56 53 54 55 54 55 59 63 64 61 62 65 68 68 67 68 70 73 77 79 75 72 75 80
65 69 69 66 62 59 57 55 54 54 54 53 52 51 52 53 53 53 52 53 55 54 53 57 62 64 62 59 59 61 63 64 64 66 70 69 68 71 73 71 74 79
61 61 61 59 57 54 54 55 54 54 54 54 53 51 49 49 48 47 46 47 51 52 54 58 63 63 60 56 54 54 55 58 60 60 62 62 60 62 65 65 66 70
55 52 51 51 51 51 51 52 53 53 53 54 53 52 51 49 49 48 47 47 49 50 52 56 60 62 58 54 54 53 53 55 58 59 59 60 60 60 60 60 61 67
52 49 48 48 50 52 51 51 52 52 53 53 52 51 51 50 48 48 47 47 48 49 51 54 57 58 54 53 54 54 54 56 57 57 58 61 62 61 61 60 61 69
49 45 45 46 48 50 50 51 52 51 51 50 48 46 46 47 47 48 48 48 49 51 53 53 53 52 50 50 50 50 52 54 53 54 59 61 63 63 63 65 69 76
52 46 46 46 46 48 49 49 50 51 51 50 48 46 44 43 44 44 44 45 45 47 51 52 50 48 47 48 48 47 49 50 49 50 55 59 63 65 66 71 77 80
60 55 54 54 53 53 53 52 52 52 53 51 50 49 46 43 42 41 41 41 41 42 46 48 47 47 50 53 53 51 52 51 49 50 55 62 65 66 67 70 73 72
69 65 64 64 63 61 59 56 54 52 51 50 49 49 48 47 47 47 47 47 46 46 47 49 48 48 51 54 55 55 57 56 55 56 61 67 66 65 66 66 59 55
75 72 71 71 69 66 64 61 58 56 53 51 49 47 47 47 48 51 52 53 52 50 48 47 47 46 46 48 51 54 55 55 56 59 63 66 64 62 64 62 49 42
73 72 72 72 71 70 66 63 60 58 55 51 49 46 45 45 47 49 51 52 52 50 47 45 44 42 41 43 46 47 48 49 51 56 60 63 62 61 61 58 48 40

ECMWFNIL_prec_cthk_045.txt.gz
RH
51 50 48 46 45 44 42 43 45 45 48 51 53 53 48 42 40 37 32 28 27 30 32 31 30 31 31 29 27 26 24 22 22 28 31 29 27 29 31 33 31 30
51 50 47 45 46 47 49 49 47 47 53 58 58 56 48 42 40 35 29 27 26 27 29 29 31 31 28 25 23 23 21 20 20 24 29 29 27 28 29 29 27 26
54 52 48 46 47 51 54 53 50 51 57 60 61 58 49 42 38 31 27 26 26 26 26 26 29 28 26 24 23 21 20 19 19 21 24 25 25 25 25 24 24 25
55 52 50 50 51 55 58 56 54 56 61 60 59 57 51 43 36 29 26 24 26 28 25 24 26 26 27 27 26 25 24 23 23 22 22 23 22 22 20 20 20 22
55 52 52 54 57 60 60 58 58 61 63 59 56 55 50 41 33 29 27 26 27 30 29 27 29 30 32 33 33 33 33 32 31 30 29 29 28 27 25 24 21 20
58 54 55 56 60 61 60 60 62 64 63 57 54 53 46 37 31 28 30 31 32 33 32 32 34 37 39 39 39 38 36 36 37 37 37 37 37 36 35 34 32 29
64 62 61 60 61 60 58 59 63 65 61 55 54 51 42 33 29 26 29 34 35 36 36 36 38 41 42 40 38 37 36 37 38 39 40 42 42 40 39 38 38 38
71 70 67 65 64 61 58 60 63 61 55 52 52 48 39 34 30 27 29 32 34 37 38 39 39 39 39 38 37 38 39 40 41 42 44 46 47 45 44 43 42 43
75 75 73 71 69 64 62 65 62 53 48 49 51 47 42 38 36 32 30 30 31 32 33 34 35 35 36 37 37 39 40 41 41 43 45 47 49 51 53 53 52 51
77 79 79 77 75 72 68 65 57 47 45 49 51 48 44 43 42 38 34 33 32 30 28 26 28 29 31 34 36 38 41 43 43 45 47 49 52 57 59 59 57 55
81 83 84 81 80 76 68 60 53 50 49 49 51 49 46 49 50 43 38 39 39 37 34 30 27 27 28 30 33 36 40 44 47 50 52 53 55 57 55 53 51 50
85 86 85 82 79 74 65 59 56 55 53 51 53 53 50 53 55 47 40 42 43 43 43 39 36 35 35 35 37 40 43 46 48 50 51 51 51 51 51 50 49 49
86 88 85 79 74 68 63 60 59 58 55 52 52 52 52 55 56 51 44 42 43 43 43 43 42 42 43 44 46 49 52 53 53 54 55 54 54 55 54 54 54 55
81 82 80 76 71 67 64 64 63 62 60 57 55 53 52 54 56 52 47 44 44 44 42 43 45 45 48 51 54 57 59 59 60 61 61 62 63 64 64 63 63 63
74 74 75 76 73 70 68 65 65 65 62 60 61 58 55 56 57 55 52 51 50 49 47 46 46 47 51 57 60 60 59 60 63 64 65 65 65 65 65 65 67 68
74 74 76 78 78 76 73 68 64 64 61 58 58 58 56 57 58 57 55 54 54 53 52 50 49 48 51 56 58 57 57 59 62 62 63 64 63 61 60 60 60 60
74 75 75 75 75 75 74 70 63 59 56 52 51 51 50 50 52 52 52 52 52 52 53 53 52 51 51 52 53 54 55 56 57 56 56 57 58 56 56 56 56 55
73 78 82 78 77 78 78 73 64 56 52 49 46 46 44 44 45 46 46 46 46 46 47 49 50 52 53 53 53 53 54 54 53 52 50 51 51 51 51 52 53 53
72 80 83 78 79 83 78 68 61 57 55 52 49 48 47 46 45 45 44 44 43 43 43 45 46 49 52 53 53 54 54 52 51 51 51 49 47 46 47 48 49 51
67 69 69 67 69 71 65 57 55 57 57 55 53 52 52 51 50 48 47 46 44 43 43 43 44 47 49 51 52 54 56 53 51 51 49 47 43 42 42 45 46 49
60 59 60 60 60 60 57 54 53 53 53 53 52 52 52 52 50 49 47 45 44 43 42 43 45 48 49 50 50 52 52 50 48 47 46 44 41 40 42 43 42 46
60 58 55 54 54 54 54 55 57 55 53 51 51 51 51 50 49 46 44 43 42 41 41 42 43 45 46 46 47 48 48 46 46 46 46 46 45 43 44 44 43 46
64 62 60 57 56 55 55 57 61 63 61 57 55 54 53 51 49 46 42 41 40 40 40 40 40 42 44 45 47 49 49 48 48 48 49 49 48 46 46 47 49 54
70 70 70 68 65 63 63 62 63 65 65 63 61 59 57 56 55 54 50 46 43 41 41 41 40 41 41 42 44 48 50 51 50 50 50 49 45 44 46 48 53 60
75 76 77 76 73 69 67 67 66 67 66 65 64 63 62 63 63 62 59 55 50 47 44 42 40 39 38 39 42 45 48 48 48 49 49 48 46 45 45 47 52 60
76 75 75 76 76 74 70 69 69 68 67 66 65 63 61 61 62 61 58 56 53 51 47 43 40 38 38 38 40 43 44 44 44 47 47 45 44 44 45 46 52 58

ECMWFNIL_prec_cthk_048.txt.gz
RH
60 60 58 55 54 55 56 58 59 58 56 53 50 52 55 54 50 46 42 39 38 39 36 30 24 22 22 25 26 29 32 33 32 32 32 33 34 36 36 35 34 36
68 68 63 58 57 57 57 62 64 62 61 58 53 50 50 50 50 44 39 35 35 36 33 28 24 20 19 22 23 27 33 35 33 32 31 31 33 36 36 35 35 37
71 70 64 58 59 58 59 66 69 66 65 63 59 53 47 45 45 39 32 31 32 33 31 28 24 20 18 20 20 23 29 33 32 32 31 30 31 32 32 32 32 35
71 69 64 61 62 63 65 70 69 67 68 69 66 58 48 45 45 37 30 28 28 30 30 27 25 22 20 21 22 22 25 27 27 26 26 25 26 27 29 30 29 30
73 70 67 66 65 65 71 74 69 67 70 73 72 63 53 49 47 39 33 29 27 29 31 29 26 26 26 27 27 27 27 26 25 24 22 21 20 22 26 29 29 29
78 73 68 69 67 68 75 75 69 68 72 75 73 65 55 50 45 40 36 33 29 30 31 30 30 31 33 34 33 34 33 32 30 28 26 24 22 21 23 27 29 30
78 73 69 71 73 75 78 76 70 70 74 77 73 65 55 48 41 38 37 36 35 34 34 34 34 35 37 38 39 39 37 35 33 31 30 29 29 29 27 27 29 32
78 75 74 77 81 81 78 75 72 73 78 78 73 65 55 45 38 35 35 38 38 38 38 38 38 38 38 38 38 38 36 36 35 33 33 33 33 34 33 31 30 32
77 75 74 79 83 81 78 73 71 74 78 75 69 63 53 43 36 32 32 34 36 39 39 39 38 37 36 35 34 34 35 35 36 35 36 37 37 38 38 38 38 38
75 72 75 82 83 81 78 74 73 76 74 67 65 62 51 42 37 34 32 32 32 34 35 34 34 33 32 31 30 30 31 31 33 36 38 39 41 42 43 44 44 45
81 79 83 86 85 83 80 78 80 79 72 64 65 63 53 45 42 38 36 35 33 32 32 31 31 30 29 28 28 28 29 30 32 35 37 39 42 44 46 46 44 42
87 87 87 87 88 86 81 80 81 78 70 65 64 62 56 50 49 47 44 43 40 36 35 33 31 31 30 29 29 29 30 33 35 37 38 40 42 42 43 43 43 44
91 89 87 87 89 86 83 80 77 71 68 65 63 62 59 57 59 58 55 53 50 47 46 43 38 36 36 34 34 34 36 38 42 44 45 46 47 46 46 48 52 54
90 90 86 87 86 85 85 81 73 68 66 63 64 65 65 64 65 63 61 59 57 56 55 52 48 45 43 42 41 42 45 48 51 53 53 53 53 54 54 56 58 59
85 86 86 87 84 81 82 78 72 68 64 62 65 68 67 67 68 65 63 61 59 57 56 55 53 51 48 47 47 49 54 57 58 58 57 57 56 58 59 58 58 58
80 79 80 81 77 73 72 71 70 69 65 64 68 71 70 69 68 68 67 65 64 62 61 60 57 54 51 50 51 55 59 62 62 60 59 59 58 58 59 58 57 57
77 76 75 74 71 68 66 66 68 69 68 67 69 72 73 72 71 70 68 67 65 63 63 62 59 56 55 54 54 56 59 61 61 59 58 58 57 56 56 55 54 53
72 75 76 71 68 69 69 69 70 70 71 71 69 69 69 67 65 65 64 64 63 62 60 59 57 56 56 55 53 54 55 56 55 54 54 54 54 54 53 52 52 51
68 72 75 72 70 71 74 75 74 74 73 70 65 60 58 57 58 59 59 60 60 59 57 55 54 53 53 53 53 53 53 54 53 53 53 53 54 53 53 53 53 51
67 67 67 67 66 68 70 72 73 73 73 71 66 60 54 53 56 57 57 57 57 56 54 52 49 47 47 48 49 50 52 52 52 53 52 53 54 54 53 54 52 48
66 66 64 63 64 65 66 66 65 64 64 66 66 64 61 63 66 65 61 58 57 56 54 51 47 45 44 45 46 49 50 50 51 50 50 50 50 50 51 50 49 46
64 67 68 69 69 70 71 69 65 60 59 62 68 73 76 76 73 67 59 56 55 54 51 50 48 46 45 45 46 47 47 46 45 44 43 44 44 45 47 48 48 49
66 67 69 71 72 72 73 73 70 67 65 66 71 77 78 73 65 59 55 53 52 50 47 47 46 44 44 44 44 44 43 42 41 40 40 41 42 44 46 49 50 51
72 70 69 69 69 69 69 70 71 71 71 70 69 68 66 63 61 59 59 58 57 53 50 48 47 46 44 43 43 43 42 42 41 41 41 42 43 44 46 48 50 50
74 72 70 69 69 70 71 71 72 73 73 74 71 67 63 62 61 60 60 61 61 60 57 56 56 55 52 50 48 47 46 45 44 43 42 43 44 45 45 46 48 49
75 75 75 74 74 74 74 74 74 74 74 75 74 72 70 67 65 64 64 64 64 64 64 64 63 61 58 54 51 49 48 47 45 43 43 44 45 45 43 44 45 45